Regional Weather Roundup
Issued by NWS

Home | Current Version | Previous Version | Graphics & Text | Print | Product List | Glossary On
Versions: 1 2 3 4 5 6 7 8 9 10 11 12 13 14 15 16 17 18 19 20 21 22 23 24 25 26 27 28 29 30 31 32 33 34 35 36 37 38 39 40 41 42 43 44 45 46 47 48 49 50
000
ASUS43 KDMX 231306
RWRIA

WEATHER ROUNDUP FOR IOWA
NATIONAL WEATHER SERVICE DES MOINES IA
800 AM CDT SAT SEP 23 2017

NOTE: "FAIR" INDICATES FEW OR NO CLOUDS BELOW 12,000 FEET WITH NO
SIGNIFICANT WEATHER AND/OR OBSTRUCTIONS TO VISIBILITY.

* - THESE STATIONS ARE NOT NWS STATIONS...THUS NOT UNDER NWS
QUALITY CONTROL.  THEY ALSO DO NOT REPORT WEATHER SUCH
AS PRECIPITATION OR FOG.

IAZ001>003-012>014-020>022-031>034-043>046-231400-
   NORTHWEST IOWA

CITY           SKY/WX    TMP DP  RH WIND       PRES   REMARKS
CARROLL *      PTCLDY    68  68 100 CALM      29.99R
CHEROKEE *     CLEAR     70  69  96 S8        29.95S
DENISON *      PTCLDY    72  68  88 VRB7G15   29.99R
LE MARS *      PTCLDY    63  61  94 CALM      29.95R
ORANGE CITY *  PTCLDY    64  63  94 NW5       29.95S
SHELDON *      PTCLDY    66  64  94 W3        29.94R
SIOUX CITY     PTCLDY    62  61  96 NW6       29.94S
SPENCER        CLEAR     69  67  93 S10       29.95R
STORM LAKE *   PTCLDY    68  66  94 S7        29.98R FOG
$$

IAZ055>058-069>071-079>083-090>094-231400-
   SOUTHWEST IOWA

CITY           SKY/WX    TMP DP  RH WIND       PRES   REMARKS
ATLANTIC *     CLEAR     72  68  88 S5        29.99R
AUDUBON *      CLEAR     70  66  88 S3        30.00R
CLARINDA *     CLEAR     68  68 100 CALM      30.02R
COUNCIL BLFS * CLEAR     70  70 100 SE8       29.97R
CRESTON *      CLEAR     70  68  94 S6        30.03R
HARLAN  *      PTCLDY    70  68  94 S9        30.01R
LAMONI         CLEAR     69  67  93 S7        30.03R
RED OAK *      CLEAR     70  68  94 S5        29.99R
SHENANDOAH *   CLEAR     70  66  88 CALM      29.99R
$$

IAZ047>049-059>061-072>074-084-231400-
   CENTRAL IOWA

CITY           SKY/WX    TMP DP  RH WIND       PRES   REMARKS
AMES           CLEAR     68  68 100 SE6       30.02R
ANKENY *       CLEAR     70  66  88 S3        30.02R
BOONE *        CLEAR     70  68  94 VRB3      30.01R
CHARITON *     SUNNY     70  66  88 S5        30.03R
DES MOINES     PTCLDY    72  67  84 SE8       30.01R
GRINNELL*      SUNNY     69  65  85 CALM      30.05R
KNOXVILLE *    SUNNY     72  66  83 S5        30.02R
MARSHALLTOWN   SUNNY     69  66  90 SE3       30.02R
NEWTON *       SUNNY     68  66  94 CALM      30.03R
PELLA *        SUNNY     71  65  82 CALM      30.04R
PERRY *          N/A     68  68  99 SE5       30.01R FOG
$$

IAZ004>006-015-016-023>025-035-036-231400-
   NORTH CENTRAL IOWA

CITY           SKY/WX    TMP DP  RH WIND       PRES   REMARKS
ALGONA *       PTCLDY    70  70 100 S10       29.98R
CLARION *      CLEAR     70  70 100 S8        30.00S
ESTHERVILLE    CLEAR     68  68 100 S9        29.95R
FORT DODGE *   MOCLDY    72  67  84 S7        30.00R
MASON CITY     PTCLDY    69  66  90 S8        30.02R
FOREST CITY *    N/A     70  68  94 S6        30.00R
WEBSTER CITY * CLEAR     70  66  88 S5        29.99R
IOWA FALLS *     N/A     68  66  94 SE6       30.04R
$$

IAZ007>011-017>019-026>030-037>042-050>054-066-231400-
   NORTHEAST IOWA

CITY           SKY/WX    TMP DP  RH WIND       PRES   REMARKS
CEDAR RAPIDS   SUNNY     69  64  84 S3        30.04R
CHARLES CITY * MOSUNNY   70  70 100 S6        30.04R
CLINTON *      SUNNY    N/A N/A N/A E5        30.07R
DECORAH *      SUNNY     70  64  83 S6        30.03R
DUBUQUE        SUNNY     68  64  87 S5        30.07R
MONTICELLO *   SUNNY     70  64  83 CALM      30.05R
OELWEIN *      SUNNY     68  66  94 S6        30.05R
WATERLOO       SUNNY     69  64  84 S3        30.02R
$$

IAZ064-065-067-068-078-231400-
   EAST CENTRAL IOWA

CITY           SKY/WX    TMP DP  RH WIND       PRES   REMARKS
DAVENPORT      SUNNY     70  65  84 SE6       30.08R
IOWA CITY      SUNNY     68  64  87 CALM      30.06R
MUSCATINE *    SUNNY     66  64  94 CALM      30.05R
QUAD CITIES    SUNNY     71  65  81 CALM      30.05R
$$

IAZ062-063-075>077-085>089-095>099-231400-
   SOUTHEAST IOWA

CITY           SKY/WX    TMP DP  RH WIND       PRES   REMARKS
BURLINGTON     SUNNY     70  66  87 S3        30.05R
FAIRFIELD *    SUNNY     72  64  78 S6        30.04R
FORT MADISON * SUNNY     72  64  78 S5        30.06R
KEOKUK *       SUNNY     70  66  88 CALM      30.04R
OSKALOOSA *      N/A     67  65  90 CALM      30.04R
OTTUMWA        SUNNY     72  66  81 S3        30.03R
WASHINGTON *   SUNNY     68  64  88 SE5       30.06R
$$

ABBREVIATIONS USED IN REMARKS
   TC - TEMPERATURES IN CELSIUS
  WCI - WIND CHILL INDEX
   HX - HEAT INDEX
  VSB - VISIBILITY
$$





USA.gov is the U.S. government's official web portal to all federal, state and local government web resources and services.